Погода в Дарасуне

Россия / Забайкальский край     51°39′02″N   113°58′00″E
темп.,
°C
ветер,
м/с
пор.,
м/с
влажн.,
%
обл.,
%
осадки,
мм/ч
давл.,
гПа
погр.,
м
17 сентября, пт
пт1700:00+7з22835 0.0 101224
03:00+7з26845 0.0 1012142
06:00+5зсз119072 0.0 101416
09:00+9зсз377337 0.0 1014676
12:00+12ссз355046 0.0 10141562
15:00+15ссз353666 0.0 10132083
18:00+13ссв344113 0.0 1013706
21:00+6св22577 0.0 101841
18 сентября, сб
сб1800:00+4всв1159100 0.0 102012
03:00+4в116259 0.0 102111
06:00+2в1168100 0.0 102112
09:00+6вюв1255100 0.0 1021160
12:00+6юв2771100 0.1 1021480
15:00+5юв368398 0.3 1020544
18:00+6ююв3578100 0.0 1020729
21:00+5юв1286100 0.0 1020155
19 сентября, вс
вс1900:00+4вюв119033 0.0 102030
03:00+2в11960 0.0 102110
06:00+1вюв11965 0.0 102110
09:00+5юв11815 0.0 1021184
12:00+12ююв24585 0.0 1018675
15:00+16ююв344995 0.0 10151175
18:00+15ююв355630 0.0 1013553
21:00+8вюв228899 0.0 101513
20 сентября, пн
пн2000:00+6в1191100 0.0 101511
03:00+6вюв1191100 0.0 101410
06:00+5в1195100 0.0 101410
09:00+9вюв128452 0.0 1013158
12:00+14юв336969 0.0 1010844
15:00+16вюв345520 0.0 10081238
18:00+14юв446721 0.0 1008884
21:00+7вюв11952 0.0 101011
21 сентября, вт
вт2100:00+7в119595 0.0 101017
03:00+7всв119435 0.0 100911
06:00+7св119522 0.0 100812
09:00+9вюв118633 0.0 1008183
12:00+15юв236349 0.0 1006904
15:00+14юв3473100 0.1 1005733
18:00+12вюв358154 0.0 1005432
21:00+10в2791100 0.0 1005313